Lima, OH

10:52 PM EDT on July 28, 2016 (GMT -0400)
Lima Allen County

Weather History for KAOH - September, 2014

Change the Weather History Date:

Wednesday, September 3, 2014

  Actual Average (KFDY) Record (KFDY)
Temperature  
Mean Temperature 72 °F -  
Max Temperature 82 °F 77 °F 95 °F (2008)
Min Temperature 63 °F 58 °F 48 °F (1976)
Cooling Degree Days 8    
Growing Degree Days 22 (Base 50)    
Moisture  
Dew Point 63 °F    
Average Humidity 84    
Maximum Humidity 97    
Minimum Humidity 44    
Precipitation  
Precipitation 0.00 in - - ()
Sea Level Pressure  
Sea Level Pressure 30.04 in    
Wind  
Wind Speed 3 mph (SSW)    
Max Wind Speed 7 mph    
Max Gust Speed -    
Visibility 4 miles    
Events Fog    
Averages and records for this station are not official NWS values.
T = Trace of Precipitation, MM = Missing Value Source: NWS Daily Summary

Daily Weather History Graph

Daily Weather History Graph

Search for Another Location

Airport or City:

Trip Planner

Search our weather history database for the weather conditions in past years. The results will help you decide how hot, cold, wet, or windy it might be!

Date:

Astronomy

Sep. 03, 2014 Rise Set
Actual Time 7:05 AM EDT 8:05 PM EDT
Civil Twilight 6:37 AM EDT 8:32 PM EDT
Nautical Twilight 6:03 AM EDT 9:06 PM EDT
Astronomical Twilight 5:28 AM EDT 9:40 PM EDT
Moon 3:47 PM EDT (9/3) 12:57 AM EDT (9/3)
Length of Visible Light 13h 55m
Length of Day
12h 59m
Waxing Gibbous, 63% of the Moon is Illuminated
Sep 3
Waxing Gibbous
Sep 8
Full
Sep 15
Last Quarter
Sep 24
New
Oct 1
First Quarter

Hourly Weather History & Observations

Time (EDT) Temp. Heat Index Dew Point Humidity Pressure Visibility Wind Dir Wind Speed Gust Speed Precip Events Conditions
12:53 AM 66.0 °F - 64.0 °F 93% 29.99 in 5.0 mi SSW 3.5 mph - N/A   Clear
1:53 AM 66.9 °F - 64.0 °F 90% 29.99 in 6.0 mi SW 3.5 mph - N/A   Clear
2:53 AM 66.0 °F - 64.0 °F 93% 29.99 in 5.0 mi South 4.6 mph - N/A   Partly Cloudy
3:53 AM 66.9 °F - 64.0 °F 90% 29.99 in 5.0 mi SSW 4.6 mph - N/A   Clear
4:41 AM 64.9 °F - 62.1 °F 90% 30.01 in 1.8 mi Calm Calm - N/A   Clear
4:44 AM 64.0 °F - 62.1 °F 93% 30.01 in 0.8 mi Calm Calm - N/A   Mist
4:48 AM 64.4 °F - 62.6 °F 94% 30.01 in 0.5 mi Calm Calm - N/A Fog Fog
4:53 AM 64.9 °F - 62.1 °F 90% 30.00 in 0.2 mi WSW 3.5 mph - N/A Fog Fog
5:04 AM 64.9 °F - 63.0 °F 93% 30.02 in 1.0 mi WSW 4.6 mph - N/A   Mist
5:15 AM 66.0 °F - 64.0 °F 93% 30.02 in 1.5 mi WSW 3.5 mph - N/A   Partly Cloudy
5:22 AM 66.0 °F - 64.0 °F 93% 30.02 in 3.0 mi Calm Calm - N/A   Clear
5:53 AM 63.0 °F - 62.1 °F 97% 30.01 in 3.0 mi South 3.5 mph - N/A   Partly Cloudy
5:57 AM 64.0 °F - 61.0 °F 90% 30.03 in 1.5 mi South 5.8 mph - N/A   Partly Cloudy
6:00 AM 63.0 °F - 61.0 °F 93% 30.02 in 0.5 mi South 4.6 mph - N/A Fog Fog
6:11 AM 63.0 °F - 61.0 °F 93% 30.03 in 1.0 mi Calm Calm - N/A   Scattered Clouds
6:14 AM 63.0 °F - 61.0 °F 93% 30.03 in 3.0 mi South 4.6 mph - N/A   Partly Cloudy
6:17 AM 63.0 °F - 61.0 °F 93% 30.03 in 1.5 mi South 6.9 mph - N/A   Scattered Clouds
6:19 AM 63.0 °F - 61.0 °F 93% 30.03 in 0.5 mi South 6.9 mph - N/A Fog Fog
6:29 AM 64.0 °F - 63.0 °F 96% 30.03 in 0.2 mi South 4.6 mph - N/A Fog Fog
6:50 AM 66.2 °F - 64.4 °F 94% 30.04 in 1.0 mi South 5.8 mph - N/A   Mist
6:53 AM 66.0 °F - 64.0 °F 93% 30.02 in 1.5 mi SSW 5.8 mph - N/A   Overcast
7:09 AM 66.0 °F - 64.0 °F 93% 30.05 in 3.0 mi South 3.5 mph - N/A   Overcast
7:23 AM 66.0 °F - 64.0 °F 93% 30.05 in 2.0 mi South 3.5 mph - N/A   Overcast
7:30 AM 66.0 °F - 64.0 °F 93% 30.05 in 1.8 mi Calm Calm - N/A   Overcast
7:39 AM 66.0 °F - 64.9 °F 96% 30.05 in 2.0 mi Calm Calm - N/A   Overcast
7:51 AM 66.2 °F - 64.4 °F 94% 30.06 in 1.5 mi Calm Calm - N/A   Overcast
7:53 AM 66.9 °F - 64.9 °F 93% 30.04 in 1.5 mi Calm Calm - N/A   Overcast
8:27 AM 68.0 °F - 66.0 °F 93% 30.07 in 0.5 mi Calm Calm - N/A Fog Fog
8:53 AM 68.0 °F - 66.9 °F 96% 30.06 in 0.2 mi Calm Calm - N/A Fog Fog
9:53 AM 68.0 °F - 66.9 °F 96% 30.07 in 0.2 mi SSW 4.6 mph - N/A Fog Fog
10:19 AM 69.1 °F - 66.9 °F 93% 30.09 in 1.0 mi WSW 3.5 mph - N/A   Overcast
10:40 AM 70.0 °F - 68.0 °F 93% 30.09 in 2.0 mi Calm Calm - N/A   Mostly Cloudy
10:53 AM 71.1 °F - 66.9 °F 87% 30.07 in 2.5 mi WSW 3.5 mph - N/A   Mostly Cloudy
10:56 AM 71.1 °F - 66.9 °F 87% 30.09 in 3.0 mi West 3.5 mph - N/A   Scattered Clouds
11:53 AM 78.1 °F - 64.9 °F 64% 30.06 in 10.0 mi Calm Calm - N/A   Clear
12:53 PM 80.1 °F 81.1 °F 61.0 °F 52% 30.05 in 10.0 mi South 3.5 mph - N/A   Mostly Cloudy
1:53 PM 82.0 °F 82.1 °F 59.0 °F 45% 30.06 in 10.0 mi Calm Calm - N/A   Partly Cloudy
2:53 PM 82.0 °F 82.1 °F 59.0 °F 45% 30.05 in 10.0 mi SSW 6.9 mph - N/A   Clear
3:53 PM 82.0 °F 82.7 °F 61.0 °F 49% 30.04 in 10.0 mi Calm Calm - N/A   Clear
5:53 PM 82.0 °F 82.0 °F 57.9 °F 44% 30.04 in 10.0 mi SW 6.9 mph - N/A   Clear
6:53 PM 81.0 °F 81.9 °F 62.1 °F 52% 30.03 in 10.0 mi South 4.6 mph - N/A   Clear
7:53 PM 75.9 °F - 64.9 °F 69% 30.03 in 10.0 mi Calm Calm - N/A   Clear
8:53 PM 71.1 °F - 62.1 °F 73% 30.04 in 10.0 mi SE 5.8 mph - N/A   Clear
9:53 PM 71.1 °F - 62.1 °F 73% 30.06 in 10.0 mi SSE 6.9 mph - N/A   Clear
11:53 PM 69.1 °F - 61.0 °F 75% 30.07 in 10.0 mi SSE 6.9 mph - N/A   Partly Cloudy